Weather History for Homer, AK

Change the Weather History Date:

Friday, February 17, 2012

  Actual Average Record
Temperature  
Mean Temperature 30 °F -  
Max Temperature 37 °F 31 °F 49 °F (1934)
Min Temperature 24 °F 18 °F -9 °F (1954)
Degree Days  
Heating Degree Days 34    
Moisture  
Dew Point 30 °F    
Average Humidity 96    
Maximum Humidity 100    
Minimum Humidity 73    
Precipitation  
Precipitation 0.03 in - - ()
Sea Level Pressure  
Sea Level Pressure 29.65 in    
Wind  
Wind Speed 5 mph (NE)    
Max Wind Speed 12 mph    
Max Gust Speed -    
Visibility 9 miles    
Events Snow    
Averages and records for this station are not official NWS values.
T = Trace of Precipitation, MM = Missing Value Source: NWS Daily Summary

Daily Weather History Graph

Daily Weather History Graph

Search for Another Location

Airport:

Trip Planner

Search our weather history database for the weather conditions in past years. The results will help you decide how hot, cold, wet, or windy it might be!

Date:

Astronomy

Feb. 17, 2012 Rise Set
Actual Time 8:37 AM AKST 6:02 PM AKST
Civil Twilight 7:54 AM AKST 6:46 PM AKST
Nautical Twilight 7:06 AM AKST 7:34 PM AKST
Astronomical Twilight 6:19 AM AKST 8:21 PM AKST
Moon 6:30 AM AKST (2/17) 1:16 PM AKST (2/17)
Length of Visible Light 10h 51m
Length of Day
9h 25m
Waning Crescent, 18% of the Moon is Illuminated
Feb 17
Waning Crescent
Feb 21
New
Feb 29
First Quarter
Mar 8
Full
Mar 14
Last Quarter

Hourly Weather History & Observations

Time (AKST) Temp. Windchill Dew Point Humidity Pressure Visibility Wind Dir Wind Speed Gust Speed Precip Events Conditions
12:53 AM 32.0 °F 24.2 °F 32.0 °F 100% 29.54 in 10.0 mi NE 9.2 mph - 0.01 in   Overcast
1:27 AM 32.0 °F 24.2 °F 32.0 °F 100% 29.54 in 10.0 mi ENE 9.2 mph - 0.00 in   Mostly Cloudy
1:53 AM 33.1 °F 24.4 °F 33.1 °F 100% 29.55 in 10.0 mi ENE 11.5 mph - 0.00 in   Overcast
2:31 AM 32.0 °F 25.6 °F 32.0 °F 100% 29.54 in 10.0 mi ENE 6.9 mph - 0.00 in   Overcast
2:43 AM 32.0 °F 28.7 °F 32.0 °F 100% 29.55 in 10.0 mi NNE 3.5 mph - 0.00 in   Overcast
3:53 AM 32.0 °F 28.7 °F 32.0 °F 100% 29.56 in 10.0 mi NE 3.5 mph - N/A   Partly Cloudy
4:53 AM 30.0 °F 25.2 °F 30.0 °F 100% 29.57 in 10.0 mi NE 4.6 mph - N/A   Scattered Clouds
5:53 AM 32.0 °F 25.6 °F 32.0 °F 100% 29.58 in 10.0 mi East 6.9 mph - N/A   Overcast
6:26 AM 32.0 °F 28.7 °F 32.0 °F 100% 29.59 in 3.0 mi NNE 3.5 mph - 0.00 in Snow Light Snow
6:34 AM 30.2 °F - 30.2 °F 100% 29.59 in 2.5 mi Calm Calm - 0.02 in Snow Light Snow
6:41 AM 30.2 °F 26.7 °F 30.2 °F 100% 29.60 in 7.0 mi North 3.5 mph - 0.02 in Snow Light Snow
6:53 AM 30.9 °F 27.5 °F 30.9 °F 100% 29.60 in 7.0 mi NNE 3.5 mph - 0.02 in Snow Light Snow
7:53 AM 30.9 °F - 30.9 °F 100% 29.62 in 10.0 mi Calm Calm - 0.00 in   Mostly Cloudy
8:53 AM 30.9 °F - 30.9 °F 100% 29.65 in 10.0 mi Calm Calm - N/A   Overcast
9:53 AM 30.9 °F 27.5 °F 30.9 °F 100% 29.67 in 10.0 mi SE 3.5 mph - N/A   Partly Cloudy
10:30 AM 30.2 °F 26.7 °F 30.2 °F 100% 29.68 in 10.0 mi NE 3.5 mph - N/A   Overcast
10:36 AM 30.2 °F 24.3 °F 30.2 °F 100% 29.68 in 10.0 mi NNE 5.8 mph - N/A   Overcast
10:53 AM 32.0 °F 28.7 °F 32.0 °F 100% 29.69 in 10.0 mi NNE 3.5 mph - N/A   Overcast
11:53 AM 32.0 °F - 32.0 °F 100% 29.70 in 10.0 mi Calm Calm - N/A   Overcast
12:53 PM 35.1 °F - 32.0 °F 89% 29.72 in 10.0 mi Calm Calm - N/A   Partly Cloudy
1:53 PM 33.1 °F 28.7 °F 32.0 °F 96% 29.73 in 10.0 mi East 4.6 mph - N/A   Scattered Clouds
2:53 PM 33.1 °F 30.0 °F 32.0 °F 96% 29.73 in 10.0 mi ESE 3.5 mph - N/A   Clear
3:53 PM 37.0 °F - 28.9 °F 73% 29.73 in 10.0 mi Calm Calm - N/A   Scattered Clouds
4:53 PM 35.1 °F - 28.0 °F 76% 29.73 in 10.0 mi Calm Calm - N/A   Partly Cloudy
6:53 PM 28.0 °F - 26.1 °F 92% 29.73 in 10.0 mi Calm Calm - N/A   Partly Cloudy
7:53 PM 28.9 °F - 27.0 °F 92% 29.74 in 10.0 mi Calm Calm - N/A   Partly Cloudy
8:53 PM 27.0 °F - 27.0 °F 100% 29.74 in 10.0 mi Calm Calm - N/A   Partly Cloudy
9:53 PM 25.0 °F 19.3 °F 24.1 °F 96% 29.73 in 10.0 mi ESE 4.6 mph - N/A   Clear
10:53 PM 24.1 °F 16.0 °F 23.0 °F 96% 29.72 in 10.0 mi ENE 6.9 mph - N/A   Clear
11:53 PM 25.0 °F 17.1 °F 21.9 °F 88% 29.71 in 10.0 mi ENE 6.9 mph - N/A   Clear